Regional Weather Roundup
Issued by NWS

Home | Current Version | Previous Version | Text Only | Print | Product List | Glossary On
Versions: 1 2 3 4 5 6 7 8 9 10 11 12 13 14 15 16 17 18 19 20 21 22 23 24 25 26 27 28 29 30 31 32 33 34 35 36 37 38 39 40 41 42 43 44 45 46 47 48 49 50
211
ASUS44 KJAN 251310
RWRMS

MISSISSIPPI HOURLY WEATHER ROUNDUP
NATIONAL WEATHER SERVICE JACKSON MS
800 AM CDT SAT OCT 25 2014

NOTE: "FAIR: INDICATES FEW OR NO CLOUDS BELOW 12,000 FEET WITH NO
SIGNIFICANT WEATHER AND/OR OBSTRUCTIONS TO VISIBILITY.

MSZ001>002-007>008-010>013-018>021-025>028-034>036-251400-
NORTHWEST MISSISSIPPI

CITY           SKY/WX    TMP DP  RH WIND       PRES   REMARKS
CLARKSDALE     FAIR      55  55 100 S3        30.12S
CLEVELAND      FAIR      54  54 100 CALM      30.12S
GREENWOOD      CLEAR     50  48  93 CALM      30.14R
GREENVILLE     CLEAR     57  54  89 W7        30.13R
GRENADA          N/A    N/A N/A N/A MISG        N/A
OLIVE BRANCH   PTCLDY    54  54 100 SW5       30.11R
OXFORD         FAIR      48  48 100 CALM      30.13S
TUNICA         SUNNY     52  52 100 S5        30.12R FOG
$$

MSZ003>006-009-014>017-022>024-029>033-037>039-251400-
NORTHEAST MISSISSIPPI

CITY           SKY/WX    TMP DP  RH WIND       PRES   REMARKS
COLUMBUS AFB   CLEAR     47  46  97 CALM      30.14R
CORINTH        FAIR      50  48  93 CALM      30.10S
GOLDN TRIANGLE CLEAR     48  43  81 CALM      30.13R
STARKVILLE     FAIR      46  46 100 CALM      30.13S FOG
TUPELO         CLEAR     50  47  89 CALM      30.11S
$$

MSZ040-058-251400-
CENTRAL MISSISSIPPI

CITY           SKY/WX    TMP DP  RH WIND       PRES   REMARKS
JACKSON INTL   CLEAR     48  46  93 CALM      30.15R
JACKSON HAWKNS CLEAR     50  47  89 CALM      30.15R
MERIDIAN KEY   CLEAR     46  44  93 CALM      30.14R
MERIDIAN NAS   SUNNY     51  48  89 W3        30.14R
RAYMOND        FAIR      46  41  81 MISG      30.15S
VICKSBURG      CLEAR     47  45  93 CALM      30.16R
$$

MSZ059>079-251400-
SOUTH MISSISSIPPI

CITY           SKY/WX    TMP DP  RH WIND       PRES   REMARKS
BROOKHAVEN     FAIR      46  45  93 CALM      30.16S
COLUMBIA         N/A    N/A N/A N/A MISG        N/A
HATTIESBURG    CLEAR     48  47  96 CALM      30.15R
MCCOMB         CLEAR     52  46  80 N5        30.15R
NATCHEZ        CLEAR     45  43  93 CALM      30.16R
PINE BELT      CLEAR     48  45  87 CALM      30.14S
$$

MSZ080>082-251400-
COASTAL MISSISSIPPI

CITY           SKY/WX    TMP DP  RH WIND       PRES   REMARKS
BAY ST LOUIS   SUNNY     46  45  93 CALM      30.14R
BILOXI         SUNNY     54  49  81 N5        30.12R
PASCAGOULA     SUNNY     49  47  93 CALM      30.13R
GULFPORT       SUNNY     52  48  86 CALM      30.12R
$$



USA.gov is the U.S. government's official web portal to all federal, state and local government web resources and services.